TimeEDT,TemperatureF,Dew PointF,Humidity,Sea Level PressureIn,VisibilityMPH,Wind Direction,Wind SpeedMPH,Gust SpeedMPH,PrecipitationIn,Events,Conditions,WindDirDegrees,DateUTC
12:07 AM,50.0,46.4,87,30.17,10.0,NNW,11.5,-,0.00,Rain,Light Rain,340,2012-10-09 04:07:00
12:54 AM,50.0,46.0,86,30.17,10.0,North,9.2,-,0.00,Rain,Light Rain,350,2012-10-09 04:54:00
1:54 AM,50.0,46.0,86,30.16,10.0,North,12.7,-,0.00,,Overcast,350,2012-10-09 05:54:00
2:51 AM,48.2,46.4,93,30.15,10.0,North,11.5,-,N/A,,Light Drizzle,350,2012-10-09 06:51:00
2:54 AM,48.9,46.0,90,30.17,10.0,NNW,13.8,-,0.00,,Light Drizzle,340,2012-10-09 06:54:00
3:20 AM,48.2,46.4,93,30.15,4.0,NNW,11.5,-,0.00,,Light Drizzle,340,2012-10-09 07:20:00
3:54 AM,48.0,46.0,93,30.16,3.0,North,12.7,-,0.01,,Light Drizzle,10,2012-10-09 07:54:00
4:54 AM,48.0,46.9,96,30.16,5.0,North,12.7,-,0.01,,Light Drizzle,350,2012-10-09 08:54:00
5:54 AM,48.0,46.0,93,30.16,6.0,North,12.7,-,0.00,,Overcast,350,2012-10-09 09:54:00
6:54 AM,48.0,46.9,96,30.15,7.0,North,13.8,-,N/A,,Overcast,350,2012-10-09 10:54:00
7:22 AM,48.2,46.4,93,30.15,2.0,NNW,11.5,-,0.00,Rain,Light Rain,330,2012-10-09 11:22:00
7:54 AM,48.0,46.9,96,30.16,2.0,North,10.4,-,0.03,Rain,Light Rain,360,2012-10-09 11:54:00
8:54 AM,48.9,46.9,93,30.18,2.0,NNW,8.1,-,0.04,Rain,Light Rain,340,2012-10-09 12:54:00
9:54 AM,50.0,48.0,93,30.19,2.0,North,8.1,-,0.00,,Overcast,350,2012-10-09 13:54:00
10:54 AM,51.1,50.0,96,30.18,3.0,North,10.4,-,0.00,,Overcast,360,2012-10-09 14:54:00
11:54 AM,54.0,51.1,90,30.16,5.0,North,10.4,-,N/A,,Overcast,10,2012-10-09 15:54:00
12:54 PM,55.0,52.0,89,30.15,7.0,NNW,9.2,-,N/A,,Overcast,340,2012-10-09 16:54:00
1:54 PM,55.9,52.0,87,30.13,10.0,North,6.9,-,N/A,,Overcast,350,2012-10-09 17:54:00
2:54 PM,55.9,52.0,87,30.12,10.0,North,8.1,-,N/A,,Overcast,350,2012-10-09 18:54:00
3:25 PM,59.0,53.6,82,30.09,10.0,North,6.9,-,N/A,,Overcast,10,2012-10-09 19:25:00
3:54 PM,57.9,53.1,84,30.10,10.0,North,9.2,-,N/A,,Overcast,360,2012-10-09 19:54:00
4:54 PM,57.9,53.1,84,30.11,10.0,NNE,4.6,-,N/A,,Overcast,30,2012-10-09 20:54:00
5:40 PM,57.2,53.6,88,30.09,10.0,NNE,4.6,-,N/A,,Overcast,20,2012-10-09 21:40:00
5:54 PM,57.9,54.0,87,30.10,7.0,NNE,4.6,-,0.00,Rain,Light Rain,20,2012-10-09 21:54:00
6:54 PM,57.0,54.0,89,30.11,10.0,North,3.5,-,0.00,,Overcast,10,2012-10-09 22:54:00
7:54 PM,57.0,54.0,89,30.10,10.0,North,3.5,-,N/A,,Overcast,10,2012-10-09 23:54:00
8:54 PM,57.0,54.0,89,30.10,10.0,North,4.6,-,N/A,,Overcast,360,2012-10-10 00:54:00
9:54 PM,57.9,54.0,87,30.10,10.0,NNW,3.5,-,N/A,,Overcast,340,2012-10-10 01:54:00
10:54 PM,57.0,54.0,89,30.09,10.0,Calm,Calm,-,N/A,,Overcast,0,2012-10-10 02:54:00
11:54 PM,57.0,54.0,89,30.08,10.0,NNW,3.5,-,N/A,,Overcast,330,2012-10-10 03:54:00